(78989) = 2001 HM16 = 2003 UF95

Discovered at Haleakala on 2003-10-18 by NEAT.

Orbit

Orbit type: Main Belt

Note: WebGL enabled browser required.

epoch2023-09-13.0
epoch JD2460200.5
perihelion date2019-10-11.26732
perihelion JD2458767.76732
argument of perihelion (°)303.03660
ascending node (°)54.84234
inclination (°)10.10736
eccentricity0.0735748
perihelion distance (AU)2.8790135
Tisserand w.r.t. Jupiter3.2
ΔV w.r.t. Earth (km/sec)11.0
semimajor axis (AU)3.1076589
mean anomaly (°)257.76206
mean daily motion (°/day)0.17990940
aphelion distance (AU)3.336
period (years)5.48
P-vector [x]0.98867809
P-vector [y]0.03143750
P-vector [z]-0.14672189
Q-vector [x]0.04392818
Q-vector [y]0.87432645
Q-vector [z]0.48334623
absolute magnitude14.49
phase slope0.15
uncertainty0
referenceMPEC 2024-A26
observations used1109
oppositions18
arc length (days)8953
first opposition used1998
last opposition used2023
residual rms (arc-secs)0.70
perturbers coarse indicatorM-v
perturbers precise indicator003Ek
first observation date used1998-12-17.0
last observation date used2023-06-22.0
computer nameMPCLINUX
JD of orbit computation2456966.844997
perihelion JD uncertainty (days)2.7944E-04
argument of perihelion uncertainty (°)5.7303E-05
ascending node uncertainty (°)2.9252E-05
inclination uncertainty (°)8.3194E-06
eccentricity uncertainty 6.0993E-08
perihelion distance uncertainty (AU)1.9297E-07
Minimum Orbit Intersection Distances (in AU)
for orbit epoch: 2460200.5, reference: E2023-XD2
Mercury2.49991
Venus2.15619
Earth1.89147
Mars1.47964
Jupiter2.03485
Saturn5.95385
Uranus15.1581
Neptune26.9063

Observations

1138 total observations over interval: 1998 12 17.19324 – 2023 06 22.313252
These data are available for download (format description).

Date (UT) J2000 RA J2000 Dec Magn Location Ref
1998 12 17.19324 04 53 59.09 +28 32 49.6 18.7   704 – Lincoln Laboratory ETS, New Mexico MPS 91061
1998 12 17.21638 04 53 57.74 +28 32 50.2 18.7   704 – Lincoln Laboratory ETS, New Mexico MPS 91061
1998 12 17.23959 04 53 56.51 +28 32 50.4 19.0   704 – Lincoln Laboratory ETS, New Mexico MPS 91061
1998 12 17.26272 04 53 55.13 +28 32 50.6 18.9   704 – Lincoln Laboratory ETS, New Mexico MPS 91061
1998 12 17.28596 04 53 53.73 +28 32 50.8 19.4   704 – Lincoln Laboratory ETS, New Mexico MPS 91061
2001 03 26.36589 14 51 51.76 -11 04 27.5 19.1   704 – Lincoln Laboratory ETS, New Mexico MPS 91061
2001 03 26.37847 14 51 51.54 -11 04 26.5 19.6   704 – Lincoln Laboratory ETS, New Mexico MPS 91061
2001 03 26.39105 14 51 51.09 -11 04 25.2 19.3   704 – Lincoln Laboratory ETS, New Mexico MPS 91061
2001 03 26.41629 14 51 50.48 -11 04 24.2 19.2   704 – Lincoln Laboratory ETS, New Mexico MPS 91061
2001 04 23.29156 14 33 42.22 -10 23 21.1 18.9   704 – Lincoln Laboratory ETS, New Mexico MPS 30334
2001 04 23.30511 14 33 41.53 -10 23 21.0 19.0   704 – Lincoln Laboratory ETS, New Mexico MPS 30334
2001 04 23.31886 14 33 40.78 -10 23 19.2 19.0   704 – Lincoln Laboratory ETS, New Mexico MPS 30334
2001 04 23.34583 14 33 39.47 -10 23 18.1 19.1   704 – Lincoln Laboratory ETS, New Mexico MPS 30334
2001 04 24.29416 14 32 53.29 -10 21 39.3 19.9 R 919 – Desert Beaver Observatory MPS 30334
2001 04 24.32435 14 32 51.72 -10 21 35.0 20.0 R 919 – Desert Beaver Observatory MPS 30334
2001 04 24.35851 14 32 50.02 -10 21 32.2 19.6 R 919 – Desert Beaver Observatory MPS 30334
2001 04 24.48227 14 32 44.11 -10 21 18.4 20.2   608 – Haleakala-AMOS MPS 30334
2001 04 24.49331 14 32 43.56 -10 21 17.1 19.5   608 – Haleakala-AMOS MPS 30334
2001 04 24.50356 14 32 43.01 -10 21 15.6 20.4   608 – Haleakala-AMOS MPS 30334
2001 04 25.36673 14 32 00.53 -10 19 48.3 19.2 R 919 – Desert Beaver Observatory MPS 30334
2001 04 25.40174 14 31 58.77 -10 19 45.5 19.5 R 919 – Desert Beaver Observatory MPS 30334
2001 04 25.41300 14 31 58.20 -10 19 44.0 19.3 R 919 – Desert Beaver Observatory MPS 30334
2002 07 06.41128 20 26 08.04 -32 44 26.6 18.3   644 – Palomar Mountain/NEAT MPS 91061
2002 07 06.43235 20 26 07.09 -32 44 33.4 18.3   644 – Palomar Mountain/NEAT MPS 91061
2002 07 06.45431 20 26 06.07 -32 44 40.7 18.6   644 – Palomar Mountain/NEAT MPS 91061
2002 07 16.30618 20 18 07.41 -33 35 55.6 19.1   644 – Palomar Mountain/NEAT MPS 91061
2002 07 16.32708 20 18 06.30 -33 36 01.8 19.0   644 – Palomar Mountain/NEAT MPS 91061
2002 07 16.34802 20 18 05.16 -33 36 07.7 19.1   644 – Palomar Mountain/NEAT MPS 91061
2002 07 27.27187 20 08 18.31 -34 19 57.6 20.2   644 – Palomar Mountain/NEAT MPS 91061
2002 07 27.29353 20 08 17.09 -34 20 02.3 19.2   644 – Palomar Mountain/NEAT MPS 91061
2002 07 27.31536 20 08 15.84 -34 20 06.5 19.8   644 – Palomar Mountain/NEAT MPS 91061
2003 09 20.35924 02 48 17.75 +09 31 40.3 19.2   704 – Lincoln Laboratory ETS, New Mexico MPS 89697
2003 09 20.37139 02 48 17.58 +09 31 39.4 19.8   704 – Lincoln Laboratory ETS, New Mexico MPS 89697
2003 09 20.39646 02 48 17.09 +09 31 40.3 19.8   704 – Lincoln Laboratory ETS, New Mexico MPS 89697
2003 09 20.40856 02 48 16.80 +09 31 39.3 19.3   704 – Lincoln Laboratory ETS, New Mexico MPS 89697
2003 09 28.29736 02 45 26.30 +09 28 04.9 19.5   704 – Lincoln Laboratory ETS, New Mexico MPS 89697
2003 09 28.31080 02 45 25.89 +09 28 04.1 19.3   704 – Lincoln Laboratory ETS, New Mexico MPS 89697
2003 09 28.32370 02 45 25.50 +09 28 02.6 19.3   704 – Lincoln Laboratory ETS, New Mexico MPS 89697
2003 09 28.33654 02 45 25.13 +09 28 02.4 19.8   704 – Lincoln Laboratory ETS, New Mexico MPS 89697
2003 09 28.34989 02 45 24.79 +09 28 01.9 19.5   704 – Lincoln Laboratory ETS, New Mexico MPS 89697
2003 10 14.30092 02 35 33.90 +09 11 36.3 18.1 R 699 – Lowell Observatory-LONEOS MPS 89697
2003 10 14.31092 02 35 33.39 +09 11 35.2   699 – Lowell Observatory-LONEOS MPS 89697
2003 10 14.32090 02 35 32.85 +09 11 34.6   699 – Lowell Observatory-LONEOS MPS 89697
2003 10 14.33087 02 35 32.46 +09 11 32.9   699 – Lowell Observatory-LONEOS MPS 89697
2003 10 18.36458 02 32 22.45 +09 06 19.8 19.2   608 – Haleakala-AMOS MPS 89697
2003 10 18.37548 02 32 21.88 +09 06 19.3 19.0   608 – Haleakala-AMOS MPS 89697
2003 10 18.38599 02 32 21.34 +09 06 18.3 19.9   608 – Haleakala-AMOS MPS 89697
2003 10 21.36274 02 29 53.57 +09 02 21.2 18.8   704 – Lincoln Laboratory ETS, New Mexico MPS 89697
2003 10 21.37464 02 29 52.91 +09 02 20.6 19.1   704 – Lincoln Laboratory ETS, New Mexico MPS 89697
2003 10 21.38649 02 29 52.32 +09 02 19.6 19.1   704 – Lincoln Laboratory ETS, New Mexico MPS 89697
2003 10 21.42579 02 29 50.32 +09 02 16.3 18.0   644 – Palomar Mountain/NEAT MPS 89697
2003 10 21.44716 02 29 49.21 +09 02 14.3 18.0   644 – Palomar Mountain/NEAT MPS 89697
2003 10 21.46865 02 29 48.11 +09 02 12.8 18.2   644 – Palomar Mountain/NEAT MPS 89697
2003 10 22.26373 02 29 08.08 +09 01 10.0 19.0 V 691 – Steward Observatory, Kitt Peak-Spacewatch MPS 89697
2003 10 22.29214 02 29 06.59 +09 01 07.8 19.0 V 691 – Steward Observatory, Kitt Peak-Spacewatch MPS 89697
2003 10 22.31920 02 29 05.18 +09 01 05.6 19.0 V 691 – Steward Observatory, Kitt Peak-Spacewatch MPS 89697
2003 10 23.21112 02 28 19.74 +08 59 53.7 18.7 R 699 – Lowell Observatory-LONEOS MPS 89697
2003 10 23.23114 02 28 18.70 +08 59 54.2   699 – Lowell Observatory-LONEOS MPS 89697
2003 10 23.25114 02 28 17.65 +08 59 52.3   699 – Lowell Observatory-LONEOS MPS 89697
2003 10 23.27106 02 28 16.68 +08 59 49.5   699 – Lowell Observatory-LONEOS MPS 89697
2003 10 25.26198 02 26 33.65 +08 57 17.0 18.5   704 – Lincoln Laboratory ETS, New Mexico MPS 89697
2003 10 25.27418 02 26 33.00 +08 57 16.0 18.2   704 – Lincoln Laboratory ETS, New Mexico MPS 89697
2003 10 25.28584 02 26 32.40 +08 57 14.9 18.7   704 – Lincoln Laboratory ETS, New Mexico MPS 89697
2003 10 25.29749 02 26 31.76 +08 57 14.0 18.3   704 – Lincoln Laboratory ETS, New Mexico MPS 89697
2003 10 25.30925 02 26 31.10 +08 57 13.5 18.6   704 – Lincoln Laboratory ETS, New Mexico MPS 89697
2003 10 25.59319 02 26 16.17 +08 56 52.0 19.5   608 – Haleakala-AMOS MPS 89697
2003 10 25.60369 02 26 15.58 +08 56 50.1 19.5   608 – Haleakala-AMOS MPS 89697
2003 10 25.61430 02 26 15.04 +08 56 50.1 19.4   608 – Haleakala-AMOS MPS 89697
2003 10 29.24925 02 23 04.50 +08 52 23.3 17.6   704 – Lincoln Laboratory ETS, New Mexico MPS 89697
2003 10 29.27324 02 23 03.21 +08 52 22.1 18.0   704 – Lincoln Laboratory ETS, New Mexico MPS 89697
2003 10 29.28484 02 23 02.56 +08 52 20.8 18.0   704 – Lincoln Laboratory ETS, New Mexico MPS 89697
2003 10 29.29650 02 23 01.93 +08 52 20.1 18.2   704 – Lincoln Laboratory ETS, New Mexico MPS 89697
2003 11 01.25507 02 20 26.05 +08 49 03.7 18.3   704 – Lincoln Laboratory ETS, New Mexico MPS 90613
2003 11 01.26715 02 20 25.41 +08 49 02.4 18.4   704 – Lincoln Laboratory ETS, New Mexico MPS 90613
2003 11 01.27925 02 20 24.70 +08 49 02.5 18.6   704 – Lincoln Laboratory ETS, New Mexico MPS 90613
2003 11 01.29126 02 20 24.08 +08 49 01.8 18.8   704 – Lincoln Laboratory ETS, New Mexico MPS 90613
2003 11 01.30333 02 20 23.42 +08 49 00.9 18.5   704 – Lincoln Laboratory ETS, New Mexico MPS 90613
2003 11 19.17005 02 05 54.29 +08 40 10.6 18.5   644 – Palomar Mountain/NEAT MPS 91061
2003 11 19.19097 02 05 53.41 +08 40 11.0 18.8   644 – Palomar Mountain/NEAT MPS 91061
2003 11 19.21233 02 05 52.47 +08 40 11.3 18.7   644 – Palomar Mountain/NEAT MPS 91061
2003 11 21.19991 02 04 30.91 +08 40 46.8 19.4   704 – Lincoln Laboratory ETS, New Mexico MPS 91879
2003 11 21.21289 02 04 30.29 +08 40 47.8 19.7   704 – Lincoln Laboratory ETS, New Mexico MPS 91879
2003 11 21.22619 02 04 29.78 +08 40 47.4 19.7   704 – Lincoln Laboratory ETS, New Mexico MPS 91879
2003 11 21.23917 02 04 29.24 +08 40 47.6 19.8   704 – Lincoln Laboratory ETS, New Mexico MPS 91879
2003 11 21.25198 02 04 28.74 +08 40 47.6 20.1   704 – Lincoln Laboratory ETS, New Mexico MPS 91879
2003 11 30.19909 01 59 18.56 +08 48 22.0 18.4   704 – Lincoln Laboratory ETS, New Mexico MPS 92769
2003 11 30.22513 01 59 17.77 +08 48 24.3 18.8   704 – Lincoln Laboratory ETS, New Mexico MPS 92769
2003 11 30.23816 01 59 17.36 +08 48 24.5 19.3   704 – Lincoln Laboratory ETS, New Mexico MPS 92769
